TimeEDT,TemperatureF,Dew PointF,Humidity,Sea Level PressureIn,VisibilityMPH,Wind Direction,Wind SpeedMPH,Gust SpeedMPH,PrecipitationIn,Events,Conditions,WindDirDegrees,DateUTC
12:15 AM,37.4,37.4,100,29.93,10.0,NNW,3.5,-,N/A,,Overcast,340,2013-03-19 04:15:00
12:35 AM,37.4,37.4,100,29.89,10.0,Calm,Calm,-,N/A,,Overcast,0,2013-03-19 04:35:00
12:55 AM,37.4,37.4,100,29.89,10.0,Calm,Calm,-,N/A,,Overcast,0,2013-03-19 04:55:00
1:15 AM,37.4,37.4,100,29.89,10.0,Calm,Calm,-,N/A,,Overcast,0,2013-03-19 05:15:00
1:35 AM,37.4,37.4,100,29.89,10.0,NNW,3.5,-,N/A,,Overcast,330,2013-03-19 05:35:00
1:55 AM,37.4,37.4,100,29.88,7.0,NNW,3.5,-,N/A,,Overcast,340,2013-03-19 05:55:00
2:15 AM,37.4,37.4,100,29.88,5.0,Calm,Calm,-,N/A,,Overcast,0,2013-03-19 06:15:00
2:35 AM,37.4,37.4,100,29.87,7.0,Calm,Calm,-,N/A,,Overcast,0,2013-03-19 06:35:00
2:55 AM,37.4,37.4,100,29.87,3.0,Calm,Calm,-,N/A,,Overcast,0,2013-03-19 06:55:00
3:15 AM,37.4,37.4,100,29.86,2.5,Calm,Calm,-,N/A,,Overcast,0,2013-03-19 07:15:00
3:55 AM,37.4,37.4,100,29.84,1.5,NW,3.5,-,N/A,,Overcast,310,2013-03-19 07:55:00
4:15 AM,35.6,35.6,100,29.84,1.5,Calm,Calm,-,N/A,,Overcast,0,2013-03-19 08:15:00
4:35 AM,35.6,35.6,100,29.84,1.2,WNW,3.5,-,N/A,,Overcast,300,2013-03-19 08:35:00
4:55 AM,35.6,35.6,100,29.83,1.5,West,3.5,-,N/A,,Overcast,280,2013-03-19 08:55:00
5:15 AM,35.6,35.6,100,29.83,1.0,Calm,Calm,-,N/A,,Overcast,0,2013-03-19 09:15:00
5:35 AM,35.6,35.6,100,29.84,0.5,Calm,Calm,-,N/A,Fog,Fog,0,2013-03-19 09:35:00
5:55 AM,37.4,37.4,100,29.83,0.8,West,5.8,-,N/A,,Overcast,260,2013-03-19 09:55:00
6:15 AM,37.4,37.4,100,29.84,1.0,SSW,3.5,-,N/A,,Overcast,210,2013-03-19 10:15:00
6:35 AM,37.4,37.4,100,29.84,0.5,Calm,Calm,-,N/A,Fog,Fog,0,2013-03-19 10:35:00
6:55 AM,37.4,37.4,100,29.83,1.0,Calm,Calm,-,N/A,,Overcast,0,2013-03-19 10:55:00
7:15 AM,37.4,37.4,100,29.84,1.0,Calm,Calm,-,N/A,,Overcast,0,2013-03-19 11:15:00
7:35 AM,37.4,37.4,100,29.84,1.2,Calm,Calm,-,N/A,,Overcast,0,2013-03-19 11:35:00
7:55 AM,37.4,37.4,100,29.83,5.0,WSW,4.6,-,N/A,,Mostly Cloudy,250,2013-03-19 11:55:00
8:15 AM,37.4,37.4,100,29.86,5.0,WNW,4.6,-,N/A,,Scattered Clouds,300,2013-03-19 12:15:00
8:35 AM,37.4,37.4,100,29.88,7.0,WNW,6.9,-,N/A,,Mostly Cloudy,290,2013-03-19 12:35:00
8:55 AM,37.4,37.4,100,29.88,10.0,West,5.8,-,N/A,,Mostly Cloudy,260,2013-03-19 12:55:00
9:15 AM,39.2,39.2,100,29.89,10.0,West,4.6,-,N/A,,Scattered Clouds,260,2013-03-19 13:15:00
9:35 AM,41.0,41.0,100,29.90,10.0,West,3.5,-,N/A,,Clear,260,2013-03-19 13:35:00
9:55 AM,42.8,42.8,100,29.90,10.0,Calm,Calm,-,N/A,,Clear,0,2013-03-19 13:55:00
10:15 AM,44.6,42.8,93,29.90,10.0,West,4.6,-,N/A,,Clear,280,2013-03-19 14:15:00
10:35 AM,46.4,42.8,87,29.91,10.0,WNW,6.9,-,N/A,,Clear,300,2013-03-19 14:35:00
10:55 AM,48.2,42.8,82,29.91,10.0,WNW,8.1,-,N/A,,Clear,290,2013-03-19 14:55:00
11:15 AM,50.0,41.0,71,29.90,10.0,WNW,6.9,-,N/A,,Clear,300,2013-03-19 15:15:00
11:35 AM,51.8,41.0,67,29.90,10.0,WNW,10.4,-,N/A,,Clear,290,2013-03-19 15:35:00
11:55 AM,53.6,37.4,54,29.89,10.0,NW,8.1,16.1,N/A,,Clear,310,2013-03-19 15:55:00
12:15 PM,53.6,37.4,54,29.89,10.0,WNW,6.9,-,N/A,,Clear,290,2013-03-19 16:15:00
12:35 PM,55.4,33.8,44,29.89,10.0,West,10.4,16.1,N/A,,Clear,270,2013-03-19 16:35:00
12:55 PM,57.2,33.8,41,29.89,10.0,NW,10.4,19.6,N/A,,Clear,320,2013-03-19 16:55:00
1:15 PM,59.0,33.8,39,29.89,10.0,WNW,9.2,17.3,N/A,,Clear,300,2013-03-19 17:15:00
1:35 PM,59.0,32.0,36,29.89,10.0,WNW,8.1,16.1,N/A,,Clear,300,2013-03-19 17:35:00
1:55 PM,60.8,32.0,34,29.89,10.0,WNW,10.4,16.1,N/A,,Clear,290,2013-03-19 17:55:00
2:15 PM,62.6,32.0,32,29.88,10.0,WNW,6.9,-,N/A,,Clear,300,2013-03-19 18:15:00
2:35 PM,62.6,30.2,30,29.86,10.0,NNW,6.9,-,N/A,,Clear,340,2013-03-19 18:35:00
2:55 PM,64.4,28.4,26,29.86,10.0,West,11.5,17.3,N/A,,Clear,260,2013-03-19 18:55:00
3:15 PM,62.6,23.0,22,29.86,10.0,West,10.4,19.6,N/A,,Clear,270,2013-03-19 19:15:00
3:35 PM,64.4,19.4,18,29.86,10.0,West,11.5,23.0,N/A,,Clear,280,2013-03-19 19:35:00
3:55 PM,64.4,21.2,19,29.86,10.0,West,6.9,17.3,N/A,,Clear,280,2013-03-19 19:55:00
4:15 PM,64.4,19.4,18,29.86,10.0,WNW,12.7,23.0,N/A,,Clear,300,2013-03-19 20:15:00
4:35 PM,64.4,19.4,18,29.87,10.0,WNW,12.7,23.0,N/A,,Clear,300,2013-03-19 20:35:00
4:55 PM,64.4,17.6,16,29.87,10.0,NW,11.5,21.9,N/A,,Clear,310,2013-03-19 20:55:00
5:15 PM,64.4,17.6,16,29.88,10.0,West,12.7,24.2,N/A,,Clear,270,2013-03-19 21:15:00
5:35 PM,62.6,15.8,16,29.87,10.0,West,12.7,21.9,N/A,,Clear,270,2013-03-19 21:35:00
5:55 PM,62.6,14.0,15,29.88,10.0,West,12.7,24.2,N/A,,Clear,280,2013-03-19 21:55:00
6:15 PM,62.6,14.0,15,29.89,10.0,West,12.7,28.8,N/A,,Clear,260,2013-03-19 22:15:00
6:35 PM,60.8,14.0,16,29.89,10.0,West,12.7,19.6,N/A,,Clear,270,2013-03-19 22:35:00
6:55 PM,60.8,15.8,17,29.91,10.0,WNW,9.2,21.9,N/A,,Clear,290,2013-03-19 22:55:00
7:15 PM,59.0,17.6,20,29.92,10.0,West,9.2,20.7,N/A,,Clear,280,2013-03-19 23:15:00
7:35 PM,59.0,17.6,20,29.93,10.0,West,5.8,-,N/A,,Clear,280,2013-03-19 23:35:00
7:55 PM,57.2,19.4,23,29.94,10.0,WNW,8.1,-,N/A,,Clear,290,2013-03-19 23:55:00
8:15 PM,55.4,19.4,25,29.94,10.0,WNW,6.9,-,N/A,,Clear,290,2013-03-20 00:15:00
8:35 PM,55.4,21.2,26,29.96,10.0,WNW,3.5,-,N/A,,Clear,300,2013-03-20 00:35:00
8:55 PM,53.6,19.4,26,29.98,10.0,WNW,5.8,-,N/A,,Clear,290,2013-03-20 00:55:00
9:15 PM,51.8,19.4,28,29.99,10.0,WNW,3.5,-,N/A,,Clear,300,2013-03-20 01:15:00
9:35 PM,51.8,17.6,26,30.00,10.0,NW,6.9,-,N/A,,Clear,310,2013-03-20 01:35:00
9:55 PM,51.8,14.0,22,30.00,10.0,NW,8.1,-,N/A,,Clear,310,2013-03-20 01:55:00
10:15 PM,51.8,12.2,21,30.02,10.0,WNW,6.9,16.1,N/A,,Clear,290,2013-03-20 02:15:00
10:35 PM,50.0,12.2,22,30.03,10.0,WNW,4.6,-,N/A,,Clear,290,2013-03-20 02:35:00
10:55 PM,48.2,12.2,24,30.03,10.0,NW,3.5,-,N/A,,Clear,320,2013-03-20 02:55:00
11:15 PM,48.2,10.4,22,30.04,10.0,NW,3.5,-,N/A,,Clear,310,2013-03-20 03:15:00
11:35 PM,46.4,10.4,23,30.04,10.0,NW,6.9,-,N/A,,Clear,320,2013-03-20 03:35:00
11:55 PM,46.4,8.6,22,30.05,10.0,NW,3.5,-,N/A,,Clear,320,2013-03-20 03:55:00